Weather History for Pineville, WV

Change the Weather History Date:

Sunday, August 11, 2013

  Actual Average (KBKW) Record (KBKW)
Temperature  
Mean Temperature 78 °F 70 °F  
Max Temperature 84 °F 80 °F 103 °F (1926)
Min Temperature 71 °F 61 °F 41 °F (1962)
Degree Days  
Heating Degree Days 0 0  
Month to date heating degree days 0  
Since 1 June heating degree days 47  
Since 1 July heating degree days 8  
Cooling Degree Days 12 6  
Month to date cooling degree days 66  
Year to date cooling degree days 399  
Since 1 June cooling degree days 358  
Growing Degree Days 28 (Base 50)    
Moisture  
Dew Point 73 °F    
Average Humidity 96    
Maximum Humidity 100    
Minimum Humidity 72    
Precipitation  
Precipitation 0.00 in 0.12 in 1.44 in (2006)
Month to date precipitation 1.50  
Year to date precipitation 27.69  
Snow  
Snow 0.00 in - - ()
Month to date snowfall  
Since 1 September snowfall  
Snow Depth -    
Sea Level Pressure  
Sea Level Pressure 30.20 in    
Wind  
Wind Speed - (North)    
Max Wind Speed -    
Max Gust Speed -    
Visibility 5 miles    
Events Fog , Rain    
T = Trace of Precipitation, MM = Missing Value Source: NWS Daily Summary

Daily Weather History Graph

Daily Weather History Graph

Search for Another Location

Airport:

Trip Planner

Search our weather history database for the weather conditions in past years. The results will help you decide how hot, cold, wet, or windy it might be!

Date:

Astronomy

Aug. 11, 2013 Rise Set
Actual Time 6:38 AM EDT 8:23 PM EDT
Civil Twilight 6:10 AM EDT 8:51 PM EDT
Nautical Twilight 5:36 AM EDT 9:25 PM EDT
Astronomical Twilight 5:00 AM EDT 10:01 PM EDT
Moon 11:18 AM EDT (8/11) 10:45 PM EDT (8/11)
Length of Visible Light 14h 40m
Length of Day
13h 44m
Waxing Crescent, 22% of the Moon is Illuminated
Aug 11
Waxing Crescent
Aug 14
First Quarter
Aug 20
Full
Aug 28
Last Quarter
Sep 5
New

Hourly Weather History & Observations

Time (EDT) Temp. Heat Index Dew Point Humidity Pressure Visibility Wind Dir Wind Speed Gust Speed Precip Events Conditions
12:15 AM 73.2 °F - 73.2 °F 100% 30.19 in 4.0 mi North - - N/A Rain Light Rain
12:35 AM 73.4 °F - 73.4 °F 100% 30.20 in 3.0 mi North - - N/A Rain Light Rain
12:55 AM 73.4 °F - 73.4 °F 100% 30.19 in 2.5 mi North - - N/A   Overcast
1:15 AM 73.6 °F - 73.6 °F 100% 30.19 in 3.0 mi North - - N/A Rain Light Rain
1:35 AM 73.4 °F - 73.4 °F 100% 30.20 in 4.0 mi North - - N/A   Overcast
1:55 AM 73.4 °F - 73.4 °F 100% 30.19 in 3.0 mi North - - N/A   Overcast
2:15 AM 73.0 °F - 73.0 °F 100% 30.20 in 3.0 mi North - - N/A   Overcast
2:35 AM 73.0 °F - 73.0 °F 100% 30.20 in 3.0 mi North - - N/A   Overcast
2:55 AM 73.2 °F - 73.2 °F 100% 30.19 in 3.0 mi North - - N/A   Overcast
3:15 AM 73.0 °F - 73.0 °F 100% 30.20 in 3.0 mi North - - N/A   Overcast
3:35 AM 72.9 °F - 72.9 °F 100% 30.20 in 4.0 mi North - - N/A   Overcast
3:55 AM 72.7 °F - 72.7 °F 100% 30.20 in 4.0 mi North - - N/A   Overcast
4:15 AM 72.7 °F - 72.7 °F 100% 30.20 in 4.0 mi North - - N/A   Overcast
4:35 AM 72.5 °F - 72.5 °F 100% 30.20 in 3.0 mi North - - N/A   Overcast
4:55 AM 72.5 °F - 72.5 °F 100% 30.20 in 2.5 mi North - - N/A Rain Light Rain
5:15 AM 72.0 °F - 72.0 °F 100% 30.20 in 2.5 mi North - - N/A Rain Rain
5:35 AM 72.1 °F - 72.1 °F 100% 30.20 in 5.0 mi North - - N/A   Overcast
5:55 AM 71.8 °F - 71.8 °F 100% 30.20 in 4.0 mi North - - N/A   Overcast
6:15 AM 72.0 °F - 72.0 °F 100% 30.21 in 4.0 mi North - - N/A   Overcast
6:35 AM 71.8 °F - 71.8 °F 100% 30.21 in 4.0 mi North - - N/A   Overcast
6:55 AM 72.0 °F - 72.0 °F 100% 30.21 in 3.0 mi North - - N/A   Overcast
7:15 AM 72.1 °F - 72.1 °F 100% 30.21 in 2.5 mi North - - N/A   Overcast
7:35 AM 72.1 °F - 72.1 °F 100% 30.21 in 2.0 mi North - - N/A Rain Light Rain
7:55 AM 72.0 °F - 72.0 °F 100% 30.21 in 2.0 mi North - - N/A Rain Light Rain
8:15 AM 72.3 °F - 72.3 °F 100% 30.22 in 5.0 mi North - - N/A   Overcast
8:35 AM 72.5 °F - 72.5 °F 100% 30.23 in 2.5 mi North - - N/A Rain Rain
8:55 AM 72.3 °F - 72.3 °F 100% 30.23 in 2.0 mi North - - N/A Rain Rain
9:15 AM 72.7 °F - 72.7 °F 100% 30.23 in 4.0 mi North - - N/A Rain Rain
9:35 AM 72.5 °F - 72.5 °F 100% 30.23 in 2.5 mi North - - N/A Rain Rain
9:55 AM 72.7 °F - 72.7 °F 100% 30.23 in 3.0 mi North - - N/A Rain Rain
10:15 AM 72.3 °F - 72.3 °F 100% 30.24 in 1.5 mi North - - N/A Rain Rain
10:35 AM 72.5 °F - 72.5 °F 100% 30.24 in 1.8 mi North - - N/A Rain Heavy Rain
10:55 AM 72.7 °F - 72.7 °F 100% 30.24 in 5.0 mi North - - N/A Rain Light Rain
11:15 AM 72.7 °F - 72.7 °F 100% 30.24 in 4.0 mi North - - N/A Rain Heavy Rain
11:35 AM 73.0 °F - 73.0 °F 100% 30.23 in 4.0 mi North - - N/A Rain Light Rain
11:55 AM 74.8 °F - 74.1 °F 98% 30.23 in 10.0 mi North - - N/A   Overcast
12:15 PM 75.6 °F - 74.1 °F 95% 30.22 in 7.0 mi North - - N/A Rain Rain
12:35 PM 77.5 °F - 74.5 °F 90% 30.22 in 10.0 mi North - - N/A   Overcast
12:55 PM 78.4 °F - 74.7 °F 88% 30.21 in 10.0 mi North - - N/A   Overcast
1:15 PM 80.1 °F 85.1 °F 75.2 °F 85% 30.21 in 10.0 mi North - - N/A   Overcast
1:35 PM 79.2 °F - 74.1 °F 84% 30.20 in 10.0 mi North - - N/A   Mostly Cloudy
1:55 PM 79.0 °F - 74.7 °F 87% 30.20 in 10.0 mi North - - N/A   Mostly Cloudy
2:15 PM 77.9 °F - 75.4 °F 92% 30.19 in 5.0 mi North - - N/A Rain Light Rain
2:35 PM 78.1 °F - 74.7 °F 89% 30.19 in 10.0 mi North - - N/A   Mostly Cloudy
2:55 PM 78.8 °F - 74.5 °F 87% 30.18 in 10.0 mi North - - N/A   Mostly Cloudy
3:15 PM 81.3 °F 87.6 °F 75.4 °F 82% 30.17 in 10.0 mi North - - N/A   Scattered Clouds
3:35 PM 83.5 °F 90.9 °F 74.7 °F 75% 30.17 in 10.0 mi North - - N/A   Scattered Clouds
3:55 PM 84.0 °F 91.2 °F 73.9 °F 72% 30.16 in 10.0 mi North - - N/A   Scattered Clouds
4:15 PM 79.7 °F - 74.8 °F 85% 30.16 in 10.0 mi North - - N/A Rain Light Rain
4:35 PM 77.0 °F - 74.7 °F 92% 30.17 in 7.0 mi North - - N/A Rain Rain
4:55 PM 74.7 °F - 72.9 °F 94% 30.17 in 7.0 mi North - - N/A Rain Rain
5:15 PM 74.1 °F - 73.0 °F 96% 30.17 in 3.0 mi North - - N/A Rain Light Rain
5:35 PM 75.6 °F - 73.9 °F 95% 30.16 in 10.0 mi North - - N/A   Mostly Cloudy
5:55 PM 77.0 °F - 73.4 °F 89% 30.16 in 10.0 mi North - - N/A   Scattered Clouds
6:15 PM 77.0 °F - 73.6 °F 89% 30.16 in 10.0 mi North - - N/A   Scattered Clouds
6:35 PM 75.4 °F - 74.1 °F 96% 30.16 in 10.0 mi North - - N/A   Mostly Cloudy
6:55 PM 75.6 °F - 73.6 °F 94% 30.16 in 10.0 mi North - - N/A   Overcast
7:15 PM 74.8 °F - 73.4 °F 95% 30.16 in 10.0 mi North - - N/A   Scattered Clouds
7:35 PM 73.8 °F - 73.4 °F 99% 30.16 in 5.0 mi North - - N/A   Clear
7:55 PM 73.6 °F - 73.4 °F 99% 30.17 in 5.0 mi North - - N/A   Scattered Clouds
8:15 PM 73.4 °F - 73.4 °F 100% 30.17 in 4.0 mi North - - N/A   Mostly Cloudy
8:35 PM 72.7 °F - 72.7 °F 100% 30.17 in 5.0 mi North - - N/A   Scattered Clouds
8:55 PM 72.5 °F - 72.5 °F 100% 30.19 in 5.0 mi North - - N/A   Clear
9:15 PM 72.5 °F - 72.5 °F 100% 30.19 in 7.0 mi North - - N/A   Scattered Clouds
9:35 PM 72.1 °F - 72.1 °F 100% 30.20 in 5.0 mi North - - N/A   Overcast
9:55 PM 72.0 °F - 72.0 °F 100% 30.19 in 5.0 mi North - - N/A   Mostly Cloudy
10:15 PM 71.6 °F - 71.6 °F 100% 30.19 in 4.0 mi North - - N/A   Mostly Cloudy
10:35 PM 71.6 °F - 71.6 °F 100% 30.19 in 3.0 mi North - - N/A   Overcast
10:55 PM 71.6 °F - 71.6 °F 100% 30.19 in 0.8 mi North - - N/A   Overcast
11:15 PM 71.6 °F - 71.6 °F 100% 30.19 in 0.5 mi North - - N/A Fog Fog
11:35 PM 71.6 °F - 71.6 °F 100% 30.18 in 0.8 mi North - - N/A   Overcast
11:55 PM 71.6 °F - 71.6 °F 100% 30.18 in 1.8 mi North - - N/A   Overcast